SCP
0 0 0 0 0 0 0 0 0 0 0 0 0 0 0 0 0 0 0 0 0 0
0 0 0 0 0 0 0 0 0 0 0 0 0 0 0 0 0 0 0 0 0 0
0 0 0 0 0 0 0 0 0 0 0 0 0 0 0 0 0 0 0 0 0 0
0 0 0 0 0 0 0 0 0 0 0 0 0 0 0 0 0 0 0 0 0 0
0 0 0 0 0 0 0 0 0 0 0 0 0 0 0 0 0 0 0 0 0 0
0 0 0 0 0 0 0 0 0 0 0 0 0 0 0 0 0 0 0 0 0 0
0 0 0 0 0 0 0 0 0 0 0 0 0 0 0 0 0 0 0 0 0 0
0 0 0 0 0 0 0 0 0 0 0 0 0 0 0 0 0 0 0 0 0 0
0 0 0 0 0 0 0 0 0 0 0 0 0 0 0 0 0 0 0 0 0 0
0 0 0 0 0 0 0 0 0 0 0 0 0 0 0 0 0 0 0 0 0 0
0 0 0 0 0 0 0 0 0 0 0 0 0 0 0 0 0 0 0 0 0 0
0 0 0 0 0 0 0 0 0 0 0 0 0 0 0 0 0 0 0 0 0 0
0 0 0 0 0 0 0 0 0 0 0 0 0 0 0 0 0 0 0 0 0 0
0 0 0 0 0 0 0 0 0 0 0 0 0 0 0 0 0 0 0 0 0 0
Wind_Speed_500mb
61 58 54 57 56 55 51 51 50 51 50 47 46 42 44 44 39 39 37 38 41 45
48 51 51 45 44 51 47 45 40 38 41 46 50 51 49 38 36 37 37 39 39 38
39 32 33 36 38 34 36 33 32 28 30 27 33 31 28 29 27 27 30 32 33 37
28 29 27 26 25 24 26 25 26 27 24 21 20 20 20 20 21 23 24 25 25 27
26 25 25 24 23 23 20 18 16 16 15 14 14 15 16 18 18 18 18 19 19 21
27 25 24 22 21 19 16 13 12 11 10 8 8 9 10 12 13 14 15 16 17 18
25 22 21 20 17 15 13 10 8 6 4 4 5 6 9 10 12 14 15 16 17 19
22 19 17 15 13 10 8 4 1 2 4 4 5 8 9 10 13 15 17 19 19 21
17 15 13 10 8 5 2 2 5 7 9 10 10 11 13 14 16 18 18 21 21 21
9 7 5 3 2 4 5 8 12 15 16 18 17 17 18 18 18 19 17 17 18 19
7 4 2 1 3 6 8 10 12 15 17 17 18 17 18 19 19 18 17 15 15 16
2 2 2 3 6 8 11 12 14 14 16 16 16 15 14 13 14 14 13 10 10 11
3 5 6 7 9 11 13 15 15 15 15 15 15 15 14 13 14 14 12 12 11 12
9 10 11 11 12 13 13 14 14 13 12 11 10 11 11 12 12 13 15 15 16 17
Wind_Direction_500mb
223 224 221 223 219 221 214 225 219 223 228 232 237 242 246 247 246 250 254 262 266 267
222 225 226 221 212 219 218 220 226 234 245 245 247 253 255 244 246 249 256 261 262 262
217 210 204 202 206 204 215 217 217 225 230 234 243 244 241 242 244 246 252 256 259 266
199 207 210 208 212 211 217 222 227 227 224 224 227 233 242 249 252 253 255 259 258 261
176 179 192 190 187 186 185 186 192 201 209 219 227 233 239 244 249 252 257 264 267 269
139 143 146 148 151 156 161 168 177 192 200 208 223 236 246 253 260 266 271 273 275 278
131 133 134 135 138 141 142 150 161 183 206 220 249 266 273 280 282 285 286 288 291 293
118 118 116 118 120 120 122 131 194 267 281 292 293 284 275 282 290 292 296 298 301 302
119 116 118 120 118 118 127 267 288 290 298 303 308 306 298 296 293 297 298 298 302 302
120 122 119 96 36 344 328 320 313 313 315 317 323 322 314 309 309 304 303 304 307 306
139 138 117 4 316 305 303 303 304 305 307 313 317 321 319 317 315 311 311 310 307 302
195 234 268 289 297 300 301 300 300 301 301 301 300 301 300 298 301 308 313 318 320 314
291 299 298 296 294 292 290 291 292 292 293 298 304 312 319 315 312 316 320 321 319 312
283 290 294 295 293 290 288 287 287 289 293 297 301 306 315 321 323 321 318 313 310 311
Wind_Speed_850mb
61 58 54 57 56 55 51 51 50 51 50 47 46 42 44 44 39 39 37 38 41 45
48 51 51 45 44 51 47 45 40 38 41 46 50 51 49 38 36 37 37 39 39 38
39 32 33 36 38 34 36 33 32 28 30 27 33 31 28 29 27 27 30 32 33 37
28 29 27 26 25 24 26 25 26 27 24 21 20 20 20 20 21 23 24 25 25 27
26 25 25 24 23 23 20 18 16 16 15 14 14 15 16 18 18 18 18 19 19 21
27 25 24 22 21 19 16 13 12 11 10 8 8 9 10 12 13 14 15 16 17 18
25 22 21 20 17 15 13 10 8 6 4 4 5 6 9 10 12 14 15 16 17 19
22 19 17 15 13 10 8 4 1 2 4 4 5 8 9 10 13 15 17 19 19 21
17 15 13 10 8 5 2 2 5 7 9 10 10 11 13 14 16 18 18 21 21 21
9 7 5 3 2 4 5 8 12 15 16 18 17 17 18 18 18 19 17 17 18 19
7 4 2 1 3 6 8 10 12 15 17 17 18 17 18 19 19 18 17 15 15 16
2 2 2 3 6 8 11 12 14 14 16 16 16 15 14 13 14 14 13 10 10 11
3 5 6 7 9 11 13 15 15 15 15 15 15 15 14 13 14 14 12 12 11 12
9 10 11 11 12 13 13 14 14 13 12 11 10 11 11 12 12 13 15 15 16 17
Wind_Direction_850mb
223 224 221 223 219 221 214 225 219 223 228 232 237 242 246 247 246 250 254 262 266 267
222 225 226 221 212 219 218 220 226 234 245 245 247 253 255 244 246 249 256 261 262 262
217 210 204 202 206 204 215 217 217 225 230 234 243 244 241 242 244 246 252 256 259 266
199 207 210 208 212 211 217 222 227 227 224 224 227 233 242 249 252 253 255 259 258 261
176 179 192 190 187 186 185 186 192 201 209 219 227 233 239 244 249 252 257 264 267 269
139 143 146 148 151 156 161 168 177 192 200 208 223 236 246 253 260 266 271 273 275 278
131 133 134 135 138 141 142 150 161 183 206 220 249 266 273 280 282 285 286 288 291 293
118 118 116 118 120 120 122 131 194 267 281 292 293 284 275 282 290 292 296 298 301 302
119 116 118 120 118 118 127 267 288 290 298 303 308 306 298 296 293 297 298 298 302 302
120 122 119 96 36 344 328 320 313 313 315 317 323 322 314 309 309 304 303 304 307 306
139 138 117 4 316 305 303 303 304 305 307 313 317 321 319 317 315 311 311 310 307 302
195 234 268 289 297 300 301 300 300 301 301 301 300 301 300 298 301 308 313 318 320 314
291 299 298 296 294 292 290 291 292 292 293 298 304 312 319 315 312 316 320 321 319 312
283 290 294 295 293 290 288 287 287 289 293 297 301 306 315 321 323 321 318 313 310 311